This is the latest recevied weather packets stored in our database for station/object LU8FCJ-5. If no packets are shown the sender has not sent any weather packets the latest 10 day(s).
| Time | Temp. | Humidity | Pressure | Rain* | Wind** | Luminosity | Snow |
|---|---|---|---|---|---|---|---|
| 1777635848 | 13.89° C | 91% | 1009.1 hPa | 0 mm | - | - | - |
| 1777635538 | 13.33° C | 91% | 1009.2 hPa | 0 mm | - | - | - |
| 1777635230 | 12.78° C | 91% | 1009 hPa | 0 mm | - | - | - |
| 1777634917 | 12.78° C | 92% | 1009 hPa | 0 mm | - | - | - |
| 1777634609 | 12.78° C | 93% | 1008.8 hPa | 0 mm | - | - | - |
| 1777634296 | 11.67° C | 94% | 1008.8 hPa | 0 mm | - | - | - |
| 1777633987 | 11.67° C | 94% | 1008.6 hPa | 0 mm | - | - | - |
| 1777633679 | 11.11° C | 94% | 1009.1 hPa | 0 mm | - | - | - |
| 1777633366 | 11.11° C | 95% | 1009 hPa | 0 mm | - | - | - |
| 1777633056 | 11.11° C | 95% | 1008.8 hPa | 0 mm | - | - | - |
| 1777632746 | 11.11° C | 95% | 1008.6 hPa | 0 mm | - | - | - |
| 1777632436 | 10.56° C | 95% | 1008.8 hPa | 0 mm | - | - | - |
| 1777632126 | 10.56° C | 94% | 1008.8 hPa | 0 mm | - | - | - |
| 1777631816 | 10.56° C | 94% | 1008.7 hPa | 0 mm | - | - | - |
| 1777631506 | 11.11° C | 94% | 1008.8 hPa | 0 mm | - | - | - |
| 1777631195 | 11.11° C | 94% | 1008.8 hPa | 0 mm | - | - | - |
| 1777630885 | 11.11° C | 94% | 1008.9 hPa | 0 mm | - | - | - |
| 1777630575 | 11.11° C | 94% | 1008.7 hPa | 0 mm | - | - | - |
| 1777630264 | 11.11° C | 94% | 1008.9 hPa | 0 mm | - | - | - |
| 1777629955 | 11.11° C | 94% | 1008.8 hPa | 0 mm | - | - | - |
| 1777629657 | 11.11° C | 94% | 1008.7 hPa | 0 mm | - | - | - |
| 1777629335 | 11.11° C | 94% | 1008.6 hPa | 0 mm | - | - | - |
| 1777629031 | 11.11° C | 93% | 1008.7 hPa | 0 mm | - | - | - |
| 1777628711 | 11.11° C | 93% | 1008.7 hPa | 0 mm | - | - | - |
| 1777628404 | 11.67° C | 93% | 1008.8 hPa | 0 mm | - | - | - |
* Rain latest hour (hover to see other rain measurements)
** Current wind speed in m/s (hover to see current wind gust speed)